Theta_e
304 304 303 302 302 304 307 307 306 306 306 306 306 307 307 308 309 307 308 308 307 306 305 305 307 309 309 309 307 307 308 304 307 309 309 309 312 312 313 312 312 315 315 318 317 322 328 312 315 319 314 311 311 312
304 303 302 303 304 307 307 307 306 306 306 306 307 308 308 308 308 308 309 308 308 307 306 306 306 307 306 307 309 308 308 307 307 308 308 308 312 309 312 315 311 316 313 312 313 315 312 311 312 311 310 311 311 311
303 303 303 305 308 307 307 307 307 306 306 307 308 308 308 308 308 309 309 307 305 305 302 303 307 308 305 306 308 309 308 305 304 304 306 307 311 307 312 312 313 311 309 311 311 312 313 312 312 311 311 310 311 312
303 302 303 307 309 308 307 307 307 306 307 308 308 308 308 308 308 309 308 307 306 301 304 306 306 308 305 305 306 306 306 304 301 300 300 303 309 306 308 307 311 310 309 308 310 312 312 314 315 313 312 311 313 312
302 303 304 308 308 308 309 308 307 307 307 308 309 308 308 308 308 308 306 307 306 305 308 307 304 307 306 305 304 304 304 303 304 304 304 305 305 305 306 307 309 311 309 311 312 313 314 314 314 314 313 313 313 314
303 303 305 309 308 309 311 309 307 307 308 309 309 309 309 309 310 311 307 307 306 306 303 311 307 305 306 306 305 303 303 302 302 303 304 304 304 306 308 309 309 310 310 311 315 314 314 314 313 312 314 314 314 314
303 303 307 309 308 309 312 311 307 309 309 309 310 310 310 310 310 310 308 308 307 306 302 307 314 309 308 305 301 301 302 301 303 305 305 304 305 304 305 309 308 310 309 310 310 311 312 310 310 309 309 311 313 313
303 305 308 310 309 309 312 311 310 309 309 309 309 310 310 309 308 308 308 307 307 307 302 308 314 316 309 307 306 299 301 301 303 306 306 307 305 304 305 307 308 309 308 309 309 309 309 309 308 308 308 308 308 308
303 305 310 310 309 309 312 312 311 310 309 309 309 309 310 310 309 310 307 307 307 306 310 312 315 317 309 310 305 303 300 307 301 307 309 307 305 309 309 309 307 308 310 310 309 308 309 309 308 307 307 306 306 307
304 306 310 310 310 309 311 313 312 311 309 309 309 312 311 311 308 307 307 308 309 306 303 309 307 313 310 312 314 312 304 306 311 311 308 310 310 309 307 306 305 306 309 309 308 308 307 307 307 306 306 305 305 305
305 308 311 311 311 310 310 313 312 311 310 310 311 311 311 309 310 310 314 314 311 313 309 307 309 311 311 317 315 313 313 308 308 311 309 305 303 307 306 305 304 303 307 309 307 306 305 304 305 305 305 305 304 304
305 309 311 311 312 310 310 314 313 310 312 313 313 312 310 308 309 315 311 310 312 315 309 311 311 309 309 311 315 312 317 311 312 306 306 301 304 305 305 305 304 302 306 307 307 306 305 305 304 303 303 303 303 303
306 309 311 312 311 314 314 312 312 311 311 311 312 314 314 310 309 315 312 310 309 307 306 307 309 312 313 309 312 313 313 310 304 306 307 306 304 304 304 304 303 303 302 307 306 306 305 305 304 303 303 303 302 303
306 308 311 312 316 315 313 312 312 312 311 311 319 313 314 313 315 313 309 307 306 305 305 304 308 312 309 315 308 312 308 305 306 299 302 304 304 304 303 303 303 303 302 301 305 306 306 305 305 304 304 303 302 302
307 308 311 314 316 317 312 313 313 312 313 316 315 311 313 311 308 308 306 305 305 303 304 309 307 304 305 308 305 306 308 305 302 303 303 303 303 303 303 303 302 302 302 300 301 305 306 306 306 305 305 304 301 301
307 310 316 316 318 314 312 314 312 313 315 316 317 317 310 309 308 307 306 306 302 303 303 303 307 308 308 306 308 309 308 302 304 302 302 301 303 303 303 302 302 302 301 300 301 303 305 306 305 303 301 301 303 301
308 316 313 311 311 312 314 313 314 315 317 318 314 309 312 309 309 307 305 305 302 303 307 305 308 310 304 307 308 305 306 304 301 299 298 297 300 302 301 301 302 302 300 301 300 302 304 303 301 299 297 298 298 301
307 307 307 310 313 313 316 314 318 320 322 315 314 314 311 308 308 306 305 304 304 304 304 308 304 307 308 309 306 303 301 300 298 297 297 298 298 298 297 297 300 299 299 298 298 298 298 299 297 296 297 297 297 298
308 310 312 315 316 314 315 319 317 318 316 313 311 308 310 309 308 307 305 305 304 303 304 305 307 306 306 303 303 302 301 299 300 299 298 298 299 298 297 299 299 300 299 297 297 297 298 298 297 297 297 297 296 297
312 315 319 320 319 316 320 319 317 315 318 315 309 311 310 311 311 311 310 308 309 308 309 309 308 306 304 302 300 301 300 298 298 299 299 299 300 297 297 297 298 298 297 296 297 298 297 298 297 297 297 297 298 297
317 321 320 316 316 315 316 317 314 313 314 314 311 312 315 314 316 310 309 306 309 309 312 309 309 306 303 303 302 302 300 299 299 299 300 299 299 296 297 297 297 297 297 297 296 296 297 297 297 297 298 298 297 298
319 320 319 318 319 320 318 319 315 311 313 314 316 316 318 318 318 315 309 311 310 308 310 311 309 306 308 305 303 303 304 302 301 298 297 297 295 295 295 296 297 297 297 297 297 296 297 298 298 298 298 297 298 298
320 321 320 321 323 313 314 314 315 315 318 318 315 317 317 316 315 311 314 311 310 310 310 308 309 308 306 305 304 305 304 300 296 296 296 296 296 296 295 296 296 297 296 297 297 297 297 297 297 298 298 297 298 298
322 321 321 321 318 316 316 317 317 317 316 316 316 318 319 316 315 316 317 312 309 309 308 310 308 305 304 305 304 303 302 299 298 296 297 296 295 295 295 295 296 297 297 297 297 296 298 298 298 298 298 297 297 296
313 314 311 307 313 318 318 319 318 318 319 318 318 318 316 314 317 316 313 310 307 309 308 307 308 305 303 300 298 299 300 299 297 295 297 296 295 294 295 296 296 297 297 298 298 298 298 298 298 297 297 297 296 296
315 318 315 320 320 318 319 320 320 319 318 319 318 316 313 313 319 318 312 310 310 309 308 308 308 305 302 300 297 297 298 299 297 297 298 297 296 296 294 294 294 296 296 297 297 297 297 297 297 297 297 297 297 297
315 320 314 311 314 316 317 317 317 317 320 321 316 319 319 319 318 313 308 308 309 312 312 311 310 307 303 300 301 303 304 302 299 299 299 298 297 297 297 297 295 296 296 296 296 296 297 297 296 296 296 296 296 296
318 318 321 319 318 317 320 318 318 318 317 315 316 317 319 318 315 310 308 311 313 312 307 303 302 301 299 301 303 300 300 298 298 297 297 297 297 296 296 296 295 296 297 296 296 296 296 297 296 296 296 296 296 295
320 320 320 322 320 318 318 319 319 316 314 313 316 316 315 312 311 310 312 307 311 302 298 298 297 297 297 297 297 297 298 298 298 297 296 294 293 296 295 296 297 297 297 296 296 296 296 296 296 297 296 297 296 295
317 316 319 320 321 322 319 315 316 313 312 312 311 312 312 311 312 307 304 303 302 299 299 299 298 298 295 295 294 294 294 295 295 295 293 293 294 295 296 296 296 297 297 297 296 296 296 295 295 295 295 295 295 295
315 317 320 319 319 316 315 313 312 313 312 312 311 313 312 310 306 301 301 301 301 300 299 297 295 296 296 295 294 293 292 293 293 293 294 295 296 296 297 296 296 296 296 296 296 296 296 295 295 295 295 295 295 295
316 319 319 320 317 314 313 313 313 314 314 314 314 313 311 312 311 303 300 300 299 298 298 298 296 295 295 295 295 294 293 292 292 292 293 294 296 296 296 296 296 296 296 295 295 295 295 295 295 294 295 294 294 294
318 317 316 316 316 316 315 315 316 316 315 316 315 314 313 313 311 304 302 301 300 300 299 298 297 296 296 296 295 294 293 293 292 292 293 294 294 295 294 294 295 295 295 295 295 295 295 295 294 293 293 294 293 293
Wind_Speed
16 20 24 26 26 26 23 20 19 17 16 14 11 7 2 2 4 5 2 4 4 2 5 2 3 4 4 0 1 4 4 2 3 3 2 2 2 3 1 4 7 4 4 3 4 4 3 17 6 6 3 3 6 10
18 22 24 26 27 23 21 19 18 18 16 11 8 4 2 1 4 6 2 1 6 2 4 8 13 8 4 9 3 2 3 3 3 3 3 3 3 5 8 2 2 2 1 2 2 1 8 10 9 5 6 4 5 6
21 23 24 26 26 21 19 19 18 17 13 9 6 3 1 3 4 4 3 4 2 2 4 4 3 4 13 7 1 1 1 2 3 2 3 2 3 3 4 5 3 5 6 1 3 3 8 5 3 3 6 5 8 7
22 24 25 25 23 18 19 18 17 15 11 9 5 3 3 3 4 3 1 4 2 3 1 4 5 3 9 9 9 4 1 4 1 2 3 3 3 6 4 3 3 3 7 6 2 6 6 4 10 10 9 8 10 7
22 24 25 24 19 18 18 18 15 12 8 8 8 6 6 4 4 2 2 4 2 3 2 4 6 2 4 10 13 14 11 4 3 4 3 4 3 4 3 2 3 8 2 2 3 10 4 4 10 16 11 10 8 6
22 23 23 22 17 17 18 17 13 5 5 6 5 4 3 3 0 3 1 3 4 1 1 2 2 4 5 2 9 9 8 3 3 2 2 2 2 5 3 3 10 14 13 9 2 7 13 12 13 19 13 10 7 7
23 24 22 20 16 15 18 15 9 3 3 3 2 0 1 2 3 1 2 4 4 2 2 4 3 2 7 2 2 2 5 2 2 1 2 2 2 5 3 6 15 13 13 14 15 10 12 17 12 16 16 16 15 16
23 24 21 18 15 13 16 14 6 3 4 3 2 1 2 4 5 4 3 2 4 1 1 2 3 3 8 2 1 0 2 2 3 1 1 2 2 2 3 10 9 10 14 16 15 11 8 9 13 14 17 17 17 16
23 23 19 17 14 11 13 12 5 1 4 3 3 5 4 2 1 3 2 3 3 1 1 2 2 3 1 2 2 1 1 3 0 2 2 1 3 4 4 5 7 8 9 10 11 14 14 14 11 13 16 17 16 17
22 21 17 15 14 10 8 10 4 1 4 3 2 1 2 1 1 1 1 0 2 1 0 3 1 3 2 1 0 2 1 2 2 0 0 2 2 4 4 5 5 5 6 7 9 12 10 13 14 14 14 12 12 13
22 20 17 14 13 9 5 7 5 1 3 2 1 2 1 2 2 1 2 0 2 3 3 3 4 2 1 0 1 1 1 2 2 1 2 1 3 3 7 6 6 5 5 4 4 5 7 9 10 11 13 14 16 19
22 19 16 15 12 6 5 7 6 3 2 1 2 2 1 1 1 1 2 1 1 3 2 3 3 4 2 0 1 1 1 2 2 0 3 3 3 4 5 4 5 5 1 3 3 3 5 6 8 10 10 12 15 19
22 19 15 11 2 3 8 9 7 7 3 1 1 1 2 1 4 2 4 4 3 3 3 1 3 1 0 2 2 1 3 1 1 3 1 4 3 4 4 6 5 6 2 6 5 4 3 2 5 7 9 13 12 13
23 20 15 4 2 8 14 10 7 5 3 2 2 4 2 4 3 4 4 4 5 4 4 1 1 0 1 1 1 3 1 3 3 3 3 3 4 5 6 3 3 6 5 2 6 6 4 3 2 5 8 12 15 13
26 23 14 6 6 12 18 12 6 7 4 2 3 2 5 4 4 3 2 3 3 2 1 2 1 2 2 3 2 2 3 2 4 4 3 4 5 5 5 4 5 5 4 4 4 6 9 6 7 7 6 7 13 16
28 14 2 3 8 18 16 2 9 5 2 2 3 2 2 1 4 3 2 3 1 2 1 2 2 3 3 1 2 1 2 3 3 3 3 3 5 5 5 6 6 7 2 3 3 4 5 3 5 8 7 7 4 11
21 2 9 14 17 14 3 3 5 4 3 3 4 3 3 2 5 4 3 4 1 2 1 2 3 1 1 2 1 3 3 3 3 4 3 3 4 6 7 9 7 5 1 1 3 3 2 3 2 7 9 10 9 5
9 16 20 15 11 4 2 5 3 2 4 4 2 3 3 3 2 3 4 2 2 2 3 2 4 2 2 2 2 3 3 3 3 3 4 4 6 9 9 8 6 2 8 4 3 4 5 3 6 5 6 6 9 10
31 19 4 6 3 2 1 3 4 3 5 2 3 2 2 3 4 2 1 1 3 2 4 2 2 2 3 3 3 3 2 3 2 2 3 7 8 9 10 7 5 8 7 4 5 5 5 4 5 5 6 8 9 10
9 2 2 3 3 2 2 3 2 1 3 3 1 2 3 3 2 0 2 1 1 1 3 3 2 2 2 2 4 3 3 3 2 2 3 4 7 8 10 8 3 7 9 7 8 5 4 5 6 7 9 11 14 14
3 2 6 1 2 4 2 1 2 4 2 2 1 1 3 3 3 4 2 1 2 1 2 2 1 3 6 6 5 5 6 7 3 3 3 3 6 6 6 6 2 3 2 6 5 2 3 4 3 7 10 13 15 15
3 6 2 2 1 1 2 5 2 2 0 2 2 2 3 3 3 2 3 3 2 1 2 2 2 2 4 4 4 5 5 6 3 3 2 2 3 4 5 7 5 3 4 4 4 4 3 2 8 8 8 10 14 18
5 2 2 1 1 1 5 0 0 2 2 3 3 2 2 2 2 2 3 1 1 1 2 4 4 8 5 4 4 6 6 8 7 5 4 6 8 7 7 9 9 7 5 3 4 3 3 5 9 6 7 7 11 14
3 1 1 1 2 4 2 2 1 2 3 4 4 2 3 3 4 3 2 1 2 2 1 2 1 3 3 2 0 4 6 8 8 6 7 12 7 4 4 5 6 6 6 5 1 5 8 6 6 7 5 6 10 10
3 3 3 4 1 1 2 2 2 3 2 2 3 3 4 4 4 3 2 3 2 2 2 3 5 3 1 2 4 5 10 12 9 5 8 8 7 8 6 7 7 5 4 6 5 6 8 10 8 8 7 4 5 9
1 3 5 3 1 3 2 1 1 1 1 1 1 2 2 2 3 3 2 2 2 1 1 3 3 3 2 5 1 3 8 8 5 3 5 10 10 6 5 3 1 3 4 4 1 3 3 4 5 7 6 5 4 7
1 4 3 2 1 2 1 2 1 2 3 3 2 1 1 2 2 2 3 3 2 3 3 8 5 2 1 4 4 3 9 15 11 6 4 8 7 5 4 4 5 3 5 7 4 3 5 5 5 4 4 4 5 5
5 3 5 3 3 1 1 2 2 3 3 3 3 2 2 4 3 2 3 3 5 5 4 8 10 14 14 12 5 4 4 3 2 8 12 9 5 4 2 7 13 12 12 7 5 7 6 7 7 6 3 7 8 7
4 3 3 3 3 2 4 5 4 3 4 3 4 3 2 2 1 2 5 10 3 14 19 19 16 18 23 24 24 21 14 8 5 5 4 3 5 9 6 10 9 6 1 7 5 5 5 3 8 7 7 4 8 4
4 4 3 3 3 4 3 4 4 3 2 2 2 2 2 2 4 6 1 5 14 18 16 13 11 15 15 18 18 21 20 17 14 8 3 1 3 5 5 9 6 6 9 4 4 7 6 10 12 7 7 9 7 7
2 3 2 2 2 2 1 4 5 4 2 1 1 2 2 2 4 7 9 14 17 18 16 16 15 15 16 15 13 11 11 12 11 11 11 9 10 10 10 9 9 7 6 6 6 5 7 8 8 7 9 9 7 7
3 6 4 3 1 1 2 2 2 2 2 2 1 1 1 2 1 2 7 10 12 11 12 16 18 13 12 14 14 13 13 13 13 12 10 9 10 12 11 9 7 6 6 6 6 6 6 8 8 8 8 6 6 6
1 2 2 3 2 3 3 3 2 2 2 3 3 4 3 4 4 3 4 9 5 11 15 15 16 17 16 14 14 13 13 14 15 14 14 12 10 10 10 9 8 9 10 10 9 9 9 8 9 9 8 7 6 6
Wind_Direction
350 347 343 339 337 335 337 339 339 337 339 341 336 330 311 249 220 194 149 206 207 224 281 278 294 328 309 175 290 306 304 349 318 323 311 317 295 343 70 72 132 166 205 205 204 206 211 348 336 66 48 40 327 329
349 344 340 339 338 341 340 340 340 340 344 350 352 354 338 223 201 178 135 142 225 267 281 298 290 319 315 301 296 0 323 319 340 316 334 320 351 347 352 88 27 97 5 258 315 327 280 316 305 65 37 325 318 311
345 342 343 345 342 343 344 341 343 345 351 360 358 358 72 163 180 185 151 132 100 355 299 345 343 349 13 29 12 329 310 328 356 355 330 336 354 329 2 26 13 360 25 188 343 321 334 330 59 24 335 311 298 295
344 343 347 345 343 345 346 343 348 350 353 353 12 66 154 150 161 186 220 179 114 106 359 286 338 10 12 40 57 57 331 7 25 51 42 21 346 7 354 322 349 327 316 332 275 266 138 172 348 343 333 308 289 287
344 347 346 345 344 347 349 348 352 354 358 46 70 102 127 128 129 107 120 181 193 143 210 281 322 247 39 40 52 57 60 56 9 12 9 20 347 341 307 275 1 356 321 3 281 306 285 302 333 337 320 297 288 301
345 346 344 347 345 348 350 351 357 22 39 86 89 105 119 149 209 325 348 212 218 229 110 320 284 219 211 21 25 31 36 56 67 34 356 326 291 333 348 358 353 3 359 1 342 3 24 13 32 10 353 319 308 324
345 345 342 346 348 352 353 355 3 110 113 121 112 112 314 278 280 263 215 304 203 223 77 315 298 186 179 126 32 39 25 43 75 53 18 340 345 349 324 6 341 358 4 14 24 12 25 31 30 21 13 8 2 356
344 343 340 343 346 353 356 359 13 148 159 176 196 280 288 284 278 282 250 182 180 271 109 338 277 294 170 151 126 221 100 69 28 52 319 312 311 332 30 336 333 353 12 18 19 30 38 28 29 28 22 15 15 7
344 342 338 339 340 349 357 4 22 172 198 215 252 286 290 248 293 335 200 208 232 197 262 241 265 287 10 125 126 100 113 82 127 59 351 356 335 38 306 324 338 341 358 350 3 11 20 32 29 30 32 25 17 4
344 340 335 333 334 337 348 1 6 315 208 224 271 272 312 316 74 137 215 344 219 187 353 242 238 272 95 333 120 142 84 136 120 132 272 39 345 306 344 313 310 327 347 356 18 21 8 15 15 18 35 34 24 17
344 341 335 331 325 323 319 348 343 262 198 224 223 232 286 226 310 196 295 310 301 273 199 235 215 261 237 334 267 107 179 139 75 36 107 42 327 288 337 356 340 335 2 37 41 26 10 4 349 356 10 17 27 28
343 340 332 328 321 313 300 317 322 236 241 211 306 304 318 29 32 338 262 289 192 260 239 217 236 201 267 289 164 347 82 76 83 341 77 0 253 272 326 333 326 332 282 88 59 57 44 23 357 344 342 352 4 24
343 338 332 333 331 0 321 309 305 253 254 296 115 357 55 262 11 18 328 308 319 281 253 332 306 198 235 62 71 75 51 47 93 46 111 233 262 282 304 325 338 340 20 189 172 179 164 86 29 11 344 4 2 13
341 336 327 297 227 346 339 314 288 222 190 151 151 323 156 299 243 212 206 227 250 238 303 220 234 184 276 83 136 80 186 100 66 35 262 258 252 283 310 294 309 331 336 1 224 228 219 217 285 354 8 359 2 3
339 332 316 225 247 326 334 315 222 179 184 191 121 252 224 252 251 243 229 294 252 229 238 138 85 119 7 72 38 78 28 355 173 219 231 253 275 288 294 311 318 334 339 345 335 246 257 273 300 309 308 347 14 16
340 334 59 212 302 322 330 228 161 192 212 173 215 256 228 16 295 301 254 266 243 338 99 38 69 56 24 65 47 65 84 237 259 228 242 278 291 295 293 293 300 301 290 292 329 275 267 268 316 329 357 351 309 10
343 1 327 313 313 325 316 177 178 204 224 213 252 207 194 217 224 235 189 245 228 64 64 93 54 279 117 71 325 176 201 224 235 271 273 253 252 280 294 300 303 309 76 99 29 14 338 27 11 13 9 18 25 347
319 308 310 300 306 316 210 214 233 198 251 239 198 242 209 205 219 259 238 209 126 137 138 207 131 128 183 209 249 233 224 250 237 258 280 288 300 308 319 289 300 301 136 131 64 19 14 67 55 22 30 62 54 45
316 314 294 260 305 290 226 222 198 242 241 233 256 264 234 252 248 275 279 17 95 119 105 67 118 199 229 207 201 208 203 204 239 282 274 298 306 319 333 322 303 157 152 139 103 65 54 75 49 40 78 55 45 34
320 347 93 270 277 206 289 277 211 222 269 256 266 258 224 213 253 76 28 41 85 42 60 5 348 303 215 229 206 188 174 159 141 336 315 328 0 360 347 331 298 164 134 116 103 101 88 71 38 63 65 57 43 26
352 30 339 10 189 211 226 263 273 213 257 236 298 325 319 355 348 11 349 3 74 130 116 149 12 287 299 305 220 177 136 153 183 190 236 297 347 357 354 357 357 134 117 126 105 88 68 55 52 106 76 58 45 38
5 336 288 254 240 196 266 229 213 287 265 268 6 24 346 350 347 15 306 47 41 0 52 86 317 327 274 247 221 189 149 151 138 118 121 331 18 35 21 13 38 84 169 167 158 213 193 125 140 124 101 74 59 53
337 336 261 252 254 45 265 334 325 350 315 305 353 24 356 336 278 323 76 75 262 273 230 108 234 268 294 343 190 185 156 152 135 132 112 110 104 93 65 44 38 32 14 351 313 233 174 159 155 136 109 78 62 55
330 316 269 250 167 261 344 315 35 356 357 13 9 13 335 302 340 35 55 301 260 300 246 265 298 322 11 57 123 221 180 172 152 148 165 156 134 116 86 57 44 31 15 352 29 159 152 151 132 122 105 75 59 57
43 308 93 293 236 315 284 328 346 21 26 359 357 346 344 353 358 7 339 283 290 259 263 334 340 294 214 270 273 228 193 194 181 174 194 199 164 135 112 85 70 54 79 112 104 147 155 162 165 153 125 85 70 65
123 242 162 229 236 185 235 246 261 231 156 37 322 278 39 31 337 308 281 270 278 282 264 245 258 291 284 235 272 3 337 303 237 177 229 217 201 167 152 116 66 54 49 53 263 219 189 174 164 147 130 118 79 80
279 264 240 238 144 123 100 51 31 137 182 183 217 26 349 345 294 280 288 255 240 304 309 316 278 224 333 15 123 95 268 274 222 233 226 196 203 213 204 176 204 121 84 55 355 311 224 192 151 126 135 115 94 81
225 221 196 206 210 184 145 180 200 210 179 177 122 187 214 197 250 254 240 324 334 343 66 74 91 100 98 73 22 349 22 127 193 123 117 109 98 139 86 86 99 92 55 348 54 52 76 118 135 105 111 88 67 17
238 224 147 248 184 200 212 196 196 213 163 158 172 191 221 221 250 297 317 345 90 125 109 101 89 90 83 77 71 67 70 78 70 43 46 25 3 25 96 122 109 32 97 105 77 54 32 122 129 120 139 123 130 129
258 163 185 216 203 229 235 170 171 133 97 134 131 86 28 0 356 341 37 108 115 123 126 116 115 100 93 85 71 59 52 48 46 56 92 35 353 34 73 152 145 116 110 106 98 74 115 96 84 85 109 117 113 100
159 152 180 217 249 349 140 100 79 85 87 86 75 129 173 166 57 66 110 124 129 136 128 113 107 108 102 92 84 80 64 59 64 66 70 78 82 81 78 101 126 108 89 89 82 80 79 90 96 101 112 99 84 86
177 199 169 194 234 134 202 111 134 115 116 103 91 98 62 66 75 289 165 156 149 140 136 134 128 122 110 101 93 89 89 85 68 62 65 72 94 92 90 89 91 91 90 83 82 93 85 95 86 93 100 110 95 88
236 123 140 114 119 220 228 114 94 110 107 145 191 184 167 154 185 204 181 195 188 162 150 145 136 129 118 104 96 100 99 88 79 72 71 76 90 97 87 79 91 94 90 86 88 95 101 99 97 96 91 90 89 82